This is the latest recevied weather packets stored in our database for station/object EA3FL-15. If no packets are shown the sender has not sent any weather packets the latest 10 day(s).
| Time | Temp. | Humidity | Pressure | Rain* | Wind** | Luminosity | Snow |
|---|---|---|---|---|---|---|---|
| 1777852505 | 15.56° C | 100% | 1017.6 hPa | - | - | - | - |
| 1777851605 | 15.56° C | 100% | 1017.8 hPa | - | - | - | - |
| 1777850705 | 15.56° C | 100% | 1017.8 hPa | - | - | - | - |
| 1777849805 | 15.56° C | 100% | 1017.9 hPa | - | - | - | - |
| 1777848904 | 15.56° C | 100% | 1017.9 hPa | - | - | - | - |
| 1777848004 | 15.56° C | 100% | 1018.1 hPa | - | - | - | - |
| 1777847104 | 15.56° C | 100% | 1018.1 hPa | - | - | - | - |
| 1777846204 | 15.56° C | 100% | 1018 hPa | - | - | - | - |
| 1777845304 | 15.56° C | 100% | 1018 hPa | - | - | - | - |
| 1777844404 | 15.56° C | 100% | 1018.1 hPa | - | - | - | - |
| 1777843503 | 16.11° C | 100% | 1018.3 hPa | - | - | - | - |
| 1777842603 | 16.67° C | 100% | 1018.2 hPa | - | - | - | - |
| 1777841703 | 17.22° C | 100% | 1018.3 hPa | - | - | - | - |
| 1777840803 | 17.22° C | 100% | 1018.5 hPa | - | - | - | - |
| 1777839903 | 16.67° C | 100% | 1018.5 hPa | - | - | - | - |
| 1777839003 | 17.22° C | 100% | 1018.3 hPa | - | - | - | - |
| 1777838103 | 17.78° C | 100% | 1018.3 hPa | - | - | - | - |
| 1777837203 | 17.22° C | 100% | 1018.1 hPa | - | - | - | - |
| 1777836303 | 17.22° C | 100% | 1017.6 hPa | - | - | - | - |
| 1777835403 | 17.78° C | 100% | 1017.8 hPa | - | - | - | - |
| 1777834504 | 17.78° C | 100% | 1017.7 hPa | - | - | - | - |
| 1777833602 | 18.33° C | 100% | 1017.6 hPa | - | - | - | - |
| 1777832702 | 17.78° C | 100% | 1017.5 hPa | - | - | - | - |
| 1777831802 | 17.78° C | 100% | 1017.3 hPa | - | - | - | - |
| 1777830902 | 17.78° C | 100% | 1017.4 hPa | - | - | - | - |
* Rain since midnight (hover to see other rain measurements)
** Current wind speed in m/s (hover to see current wind gust speed)